Denver, CO

5:58 AM MDT on July 29, 2017 (GMT -0600)
Denver International

Weather History for KDEN - September, 2014

Change the Weather History Date:

Sunday, September 28, 2014

  Actual Average Record
Temperature  
Mean Temperature 63 °F 58 °F  
Max Temperature 75 °F 73 °F 92 °F (2010)
Min Temperature 50 °F 43 °F 21 °F (1985)
Degree Days  
Heating Degree Days 2 8  
Month to date heating degree days 72 107  
Since 1 July heating degree days 79 123  
Cooling Degree Days 0 1  
Month to date cooling degree days 88 75  
Year to date cooling degree days 701 763  
Growing Degree Days 13 (Base 50)    
Moisture  
Dew Point 50 °F    
Average Humidity 62    
Maximum Humidity 86    
Minimum Humidity 38    
Precipitation  
Precipitation 0.01 in 0.03 in 1.77 in (1936)
Month to date precipitation 0.78 0.89  
Year to date precipitation 15.89 12.25  
Snow  
Snow 0.00 in - - ()
Month to date snowfall T  
Since 1 July snowfall T  
Since 1 September snowfall T  
Snow Depth 0.00 in    
Sea Level Pressure  
Sea Level Pressure 29.89 in    
Wind  
Wind Speed 9 mph (WNW)    
Max Wind Speed 28 mph    
Max Gust Speed 36 mph    
Visibility 10 miles    
Events Rain , Thunderstorm    
T = Trace of Precipitation, MM = Missing Value Source: NWS Daily Summary

Daily Weather History Graph

Daily Weather History Graph

Search for Another Location

Airport or City:

Trip Planner

Search our weather history database for the weather conditions in past years. The results will help you decide how hot, cold, wet, or windy it might be!

Date:

Astronomy

Sep. 28, 2014 Rise Set
Actual Time 6:52 AM MDT 6:45 PM MDT
Civil Twilight 6:25 AM MDT 7:12 PM MDT
Nautical Twilight 5:53 AM MDT 7:44 PM MDT
Astronomical Twilight 5:21 AM MDT 8:15 PM MDT
Moon 11:08 AM MDT (9/28) 9:32 PM MDT (9/28)
Length of Visible Light 12h 47m
Length of Day
11h 53m
Waxing Crescent, 19% of the Moon is Illuminated
Sep 28
Waxing Crescent
Oct 1
First Quarter
Oct 8
Full
Oct 15
Last Quarter
Oct 23
New

Hourly Weather History & Observations

Time (MDT) Temp. Dew Point Humidity Pressure Visibility Wind Dir Wind Speed Gust Speed Precip Events Conditions
12:53 AM 54.0 °F 39.0 °F 57% 29.76 in 10.0 mi SE 10.4 mph - N/A   Scattered Clouds
1:53 AM 55.9 °F 39.0 °F 53% 29.76 in 10.0 mi WSW 10.4 mph - N/A   Scattered Clouds
2:53 AM 55.0 °F 41.0 °F 59% 29.76 in 10.0 mi West 9.2 mph - N/A   Partly Cloudy
3:53 AM 54.0 °F 44.1 °F 69% 29.77 in 10.0 mi West 11.5 mph - N/A   Partly Cloudy
4:53 AM 52.0 °F 46.0 °F 80% 29.78 in 10.0 mi West 10.4 mph - N/A   Partly Cloudy
5:53 AM 51.1 °F 46.9 °F 86% 29.82 in 10.0 mi West 13.8 mph - N/A   Partly Cloudy
6:53 AM 51.1 °F 46.0 °F 83% 29.86 in 10.0 mi NW 10.4 mph - N/A   Partly Cloudy
7:53 AM 52.0 °F 46.9 °F 83% 29.90 in 10.0 mi NW 11.5 mph - N/A   Partly Cloudy
8:53 AM 55.9 °F 48.0 °F 75% 29.93 in 10.0 mi NW 10.4 mph - N/A   Scattered Clouds
9:53 AM 59.0 °F 48.9 °F 69% 29.93 in 10.0 mi WNW 10.4 mph - N/A   Scattered Clouds
10:53 AM 63.0 °F 48.9 °F 60% 29.93 in 10.0 mi NW 6.9 mph - N/A   Mostly Cloudy
11:53 AM 66.9 °F 48.9 °F 52% 29.93 in 10.0 mi North 10.4 mph - N/A   Mostly Cloudy
12:53 PM 69.1 °F 48.9 °F 49% 29.89 in 10.0 mi North 5.8 mph - N/A   Scattered Clouds
1:53 PM 72.0 °F 48.9 °F 44% 29.86 in 10.0 mi Variable 3.5 mph - N/A   Scattered Clouds
2:53 PM 75.0 °F 48.0 °F 38% 29.83 in 10.0 mi Variable 3.5 mph - N/A   Scattered Clouds
3:53 PM 72.0 °F 46.9 °F 41% 29.83 in 10.0 mi SE 3.5 mph - N/A   Mostly Cloudy
4:53 PM 71.1 °F 46.9 °F 42% 29.85 in 10.0 mi West 11.5 mph - N/A   Mostly Cloudy
5:24 PM 68.0 °F 50.0 °F 52% 30.04 in 9.0 mi WSW 27.6 mph 35.7 mph 0.00 in Rain , Thunderstorm Light Thunderstorms and Rain
5:49 PM 62.6 °F 57.2 °F 82% 30.04 in 6.0 mi SSW 11.5 mph - 0.00 in Rain , Thunderstorm Light Thunderstorms and Rain
5:53 PM 63.0 °F 57.9 °F 84% 29.91 in 8.0 mi South 13.8 mph - 0.00 in Rain , Thunderstorm Light Thunderstorms and Rain
6:09 PM 63.0 °F 57.9 °F 84% 30.06 in 10.0 mi SE 12.7 mph - 0.01 in Thunderstorm Thunderstorm
6:21 PM 62.1 °F 57.0 °F 84% 30.06 in 10.0 mi ESE 12.7 mph - 0.01 in   Mostly Cloudy
6:53 PM 61.0 °F 53.1 °F 75% 29.89 in 10.0 mi North 9.2 mph - 0.01 in   Mostly Cloudy
7:53 PM 62.1 °F 51.1 °F 67% 29.90 in 10.0 mi West 6.9 mph - N/A   Mostly Cloudy
8:53 PM 60.1 °F 54.0 °F 80% 29.90 in 10.0 mi SW 5.8 mph - N/A   Scattered Clouds
9:53 PM 60.1 °F 55.9 °F 86% 29.88 in 10.0 mi Calm Calm - N/A   Scattered Clouds
10:34 PM 62.1 °F 55.9 °F 80% 30.06 in 10.0 mi NW 10.4 mph - N/A   Overcast
10:48 PM 57.2 °F 53.6 °F 88% 30.05 in 10.0 mi North 12.7 mph - N/A   Overcast
10:53 PM 57.0 °F 53.1 °F 87% 29.89 in 10.0 mi North 12.7 mph - N/A   Overcast
11:53 PM 54.0 °F 48.9 °F 83% 29.88 in 10.0 mi NNE 10.4 mph - N/A   Mostly Cloudy